Flag for U.S.A. Weather past 2 weeks in Leawood, Kansas, U.S.A.

Now
76 °F

Sunny.


Feels Like: 78 °F
Forecast: 59 / 81 °F
Wind: 6 mph from Northeast

Location: Johnson County Executive Airport

Current Time: May 27, 2015 at 11:48:38 AM

Latest Report: May 27, 2015 at 10:53 AM


Visibility: 10 mi

Pressure: 30.06 "Hg

Humidity: 47%

Dew point: 54 °F

Location of LeawoodLocation

Historic Weather in Leawood — Graph

°F

Leawood temperature yesterday

Maximum temperature yesterday: 77 °F (at 4:53 PM)
Minimum temperature yesterday: 60 °F (at 4:53 AM)
Average temperature yesterday: 69 °F

Past Weeks' High & Low Weather Summary

 TemperatureHumidityPressure
High81 °F (May 16, 4:53 PM)100% (May 14, 6:53 AM)30.33 "Hg (May 14, 6:53 AM)
Low46 °F (May 19, 5:53 AM)31% (May 12, 4:53 PM)29.68 "Hg (May 17, 2:53 AM)
Average63 °F78%30.03 "Hg
* Reported May 12 10:53 AM — May 27 10:53 AM, Leawood, Weather by CustomWeather, © 2015

Note: Actual official high and low records may vary slightly from our data, if they occured in-between our weather recording intervals... More about our weather records

Advertising

Leawood weather history for previous 24 hours

 ConditionsComfort  
Time TempWeatherWind HumidityBarometerVisibility
10:53 AM
Wed, May 27
76 °FSunny.6 mph47%30.06 "Hg10 mi
9:53 AM73 °FSunny.3 mph59%30.06 "Hg10 mi
8:53 AM71 °FSunny.6 mph57%30.05 "Hg10 mi
7:53 AM66 °FSunny.No wind75%30.03 "Hg10 mi
6:53 AM62 °FClear.3 mph83%30.03 "Hg10 mi
5:53 AM61 °FClear.3 mph87%30.00 "Hg10 mi
4:53 AM61 °FPassing clouds.3 mph90%29.99 "Hg10 mi
3:53 AM62 °FClear.3 mph90%29.97 "Hg10 mi
2:53 AM62 °FClear.3 mph93%29.95 "Hg10 mi
1:53 AM63 °FPassing clouds.3 mph93%29.93 "Hg10 mi
12:53 AM64 °FClear.3 mph90%29.94 "Hg10 mi
11:53 PM
Tue, May 26
66 °FClear.No wind87%29.92 "Hg10 mi
10:53 PM69 °FClear.5 mph79%29.92 "Hg10 mi
9:53 PM71 °FPassing clouds.6 mph71%29.90 "Hg10 mi
8:53 PM73 °FSunny.7 mph59%29.88 "Hg10 mi
7:53 PM76 °FPassing clouds.7 mph56%29.86 "Hg10 mi
6:53 PM77 °FPassing clouds.8 mph54%29.85 "Hg10 mi
5:53 PM77 °FScattered clouds.15 mph54%29.85 "Hg10 mi
4:53 PM77 °FBroken clouds.15 mph56%29.86 "Hg10 mi
3:53 PM76 °FScattered clouds.14 mph58%29.86 "Hg10 mi
2:53 PM76 °FBroken clouds.17 mph54%29.86 "Hg10 mi
1:53 PM75 °FPartly sunny.21 mph54%29.85 "Hg10 mi
12:53 PM75 °FScattered clouds.15 mph60%29.84 "Hg10 mi
11:53 AM73 °FScattered clouds.15 mph66%29.83 "Hg10 mi
Weather by CustomWeather, © 2015

See weather overviewHow to use our weather pages